Weather History for Warrenton, VA

Change the Weather History Date:

Saturday, December 8, 2012

  Actual Average (KHEF) Record (KHEF)
Temperature  
Mean Temperature 57 °F -  
Max Temperature 66 °F 46 °F 64 °F (2012)
Min Temperature 48 °F 27 °F 12 °F (2002)
Degree Days  
Heating Degree Days 8    
Growing Degree Days 7 (Base 50)    
Moisture  
Dew Point 52 °F    
Average Humidity 94    
Maximum Humidity 100    
Minimum Humidity 73    
Precipitation  
Precipitation 0.00 in - - ()
Sea Level Pressure  
Sea Level Pressure 29.93 in    
Wind  
Wind Speed 3 mph (South)    
Max Wind Speed 7 mph    
Max Gust Speed -    
Visibility 7 miles    
Events Fog    
Averages and records for this station are not official NWS values.
T = Trace of Precipitation, MM = Missing Value Source: NWS Daily Summary

Daily Weather History Graph

Daily Weather History Graph

Search for Another Location

Airport:

Trip Planner

Search our weather history database for the weather conditions in past years. The results will help you decide how hot, cold, wet, or windy it might be!

Date:

Astronomy

Dec. 08, 2012 Rise Set
Actual Time 7:16 AM EST 4:49 PM EST
Civil Twilight 6:46 AM EST 5:19 PM EST
Nautical Twilight 6:13 AM EST 5:52 PM EST
Astronomical Twilight 5:41 AM EST 6:24 PM EST
Moon 1:41 AM EST (12/8) 1:15 PM EST (12/8)
Length of Visible Light 10h 32m
Length of Day
9h 33m
Waning Crescent, 28% of the Moon is Illuminated
Dec 8
Waning Crescent
Dec 13
New
Dec 20
First Quarter
Dec 28
Full
Jan 4
Last Quarter

Hourly Weather History & Observations

Time (EST) Temp. Dew Point Humidity Pressure Visibility Wind Dir Wind Speed Gust Speed Precip Events Conditions
12:15 AM 49.8 °F 49.5 °F 99% 29.95 in 10.0 mi South 3.5 mph - N/A   Overcast
12:35 AM 49.6 °F 49.5 °F 99% 29.94 in 10.0 mi SSW 3.5 mph - N/A   Overcast
12:55 AM 49.6 °F 49.6 °F 100% 29.94 in 10.0 mi South 3.5 mph - N/A   Overcast
1:15 AM 49.6 °F 49.6 °F 100% 29.93 in 10.0 mi South 4.6 mph - N/A   Overcast
1:35 AM 49.5 °F 49.5 °F 100% 29.93 in 7.0 mi South 5.8 mph - N/A   Overcast
1:55 AM 49.8 °F 49.8 °F 100% 29.93 in 7.0 mi SSW 4.6 mph - N/A   Overcast
2:15 AM 50.0 °F 50.0 °F 100% 29.92 in 7.0 mi Calm Calm - N/A   Overcast
2:35 AM 50.0 °F 50.0 °F 100% 29.92 in 7.0 mi SSW 3.5 mph - N/A   Overcast
2:55 AM 50.0 °F 50.0 °F 100% 29.92 in 7.0 mi SSW 3.5 mph - N/A   Overcast
3:15 AM 50.0 °F 50.0 °F 100% 29.91 in 7.0 mi Calm Calm - N/A   Overcast
3:35 AM 50.2 °F 50.2 °F 100% 29.91 in 7.0 mi Calm Calm - N/A   Overcast
3:55 AM 50.0 °F 50.0 °F 100% 29.91 in 5.0 mi Calm Calm - N/A   Overcast
4:15 AM 50.0 °F 50.0 °F 100% 29.90 in 5.0 mi Calm Calm - N/A   Overcast
4:35 AM 50.2 °F 50.2 °F 100% 29.90 in 5.0 mi Calm Calm - N/A   Overcast
4:55 AM 50.0 °F 50.0 °F 100% 29.91 in 5.0 mi Calm Calm - N/A   Overcast
5:15 AM 50.0 °F 50.0 °F 100% 29.91 in 5.0 mi Calm Calm - N/A   Overcast
5:35 AM 50.0 °F 50.0 °F 100% 29.91 in 4.0 mi Calm Calm - N/A   Overcast
5:55 AM 50.0 °F 50.0 °F 100% 29.91 in 4.0 mi Calm Calm - N/A   Overcast
6:15 AM 50.0 °F 50.0 °F 100% 29.92 in 4.0 mi WSW 3.5 mph - N/A   Overcast
6:55 AM 50.0 °F 50.0 °F 100% 29.92 in 4.0 mi Calm Calm - N/A   Overcast
7:15 AM 50.0 °F 50.0 °F 100% 29.92 in 2.5 mi Calm Calm - N/A   Overcast
7:35 AM 50.0 °F 50.0 °F 100% 29.93 in 1.5 mi Calm Calm - N/A   Overcast
7:55 AM 50.0 °F 50.0 °F 100% 29.93 in 0.2 mi Calm Calm - N/A Fog Fog
8:15 AM 50.0 °F 50.0 °F 100% 29.94 in 1.2 mi Calm Calm - N/A   Overcast
8:35 AM 50.0 °F 50.0 °F 100% 29.94 in 1.2 mi SSW 3.5 mph - N/A   Overcast
8:55 AM 50.2 °F 50.2 °F 100% 29.95 in 0.5 mi WSW 3.5 mph - N/A Fog Fog
9:15 AM 50.4 °F 50.4 °F 100% 29.94 in 0.5 mi South 3.5 mph - N/A Fog Fog
9:35 AM 50.9 °F 50.9 °F 100% 29.95 in 1.8 mi West 4.6 mph - N/A   Overcast
9:55 AM 50.9 °F 50.9 °F 100% 29.96 in 3.0 mi Calm Calm - N/A   Overcast
10:15 AM 51.4 °F 51.4 °F 100% 29.96 in 5.0 mi SSW 4.6 mph - N/A   Overcast
10:35 AM 52.7 °F 52.5 °F 99% 29.95 in 7.0 mi SSW 4.6 mph - N/A   Overcast
10:55 AM 53.6 °F 52.9 °F 97% 29.95 in 10.0 mi South 5.8 mph - N/A   Overcast
11:15 AM 54.1 °F 53.4 °F 97% 29.94 in 7.0 mi South 6.9 mph - N/A   Overcast
11:55 AM 57.9 °F 54.7 °F 89% 29.92 in 10.0 mi WSW 4.6 mph - N/A   Scattered Clouds
12:15 PM 59.0 °F 54.9 °F 86% 29.92 in 10.0 mi WSW 3.5 mph - N/A   Clear
12:35 PM 60.8 °F 55.4 °F 82% 29.91 in 10.0 mi WNW 4.6 mph - N/A   Clear
12:55 PM 61.5 °F 55.4 °F 80% 29.90 in 10.0 mi Calm Calm - N/A   Clear
1:15 PM 63.0 °F 56.1 °F 78% 29.89 in 10.0 mi South 5.8 mph - N/A   Clear
1:35 PM 63.7 °F 56.3 °F 77% 29.89 in 10.0 mi South 3.5 mph - N/A   Clear
1:55 PM 64.6 °F 56.5 °F 75% 29.88 in 10.0 mi South 5.8 mph - N/A   Clear
2:15 PM 65.8 °F 57.0 °F 73% 29.89 in 10.0 mi South 5.8 mph - N/A   Clear
2:35 PM 66.2 °F 57.2 °F 73% 29.89 in 10.0 mi South 3.5 mph - N/A   Clear
2:55 PM 66.2 °F 57.2 °F 73% 29.89 in 10.0 mi SSE 6.9 mph - N/A   Clear
3:15 PM 66.2 °F 57.2 °F 73% 29.88 in 10.0 mi South 5.8 mph - N/A   Clear
3:35 PM 66.4 °F 57.4 °F 73% 29.90 in 10.0 mi South 5.8 mph - N/A   Clear
3:55 PM 66.2 °F 57.2 °F 73% 29.89 in 10.0 mi South 4.6 mph - N/A   Clear
4:15 PM 64.4 °F 57.4 °F 78% 29.90 in 10.0 mi South 4.6 mph - N/A   Clear
4:35 PM 63.5 °F 57.2 °F 80% 29.90 in 10.0 mi SE 3.5 mph - N/A   Scattered Clouds
4:55 PM 61.3 °F 56.7 °F 85% 29.90 in 10.0 mi Calm Calm - N/A   Scattered Clouds
5:15 PM 58.1 °F 55.4 °F 91% 29.91 in 10.0 mi SSE 3.5 mph - N/A   Clear
5:35 PM 56.5 °F 55.0 °F 95% 29.92 in 10.0 mi Calm Calm - N/A   Clear
5:55 PM 56.5 °F 55.2 °F 96% 29.92 in 10.0 mi SSE 3.5 mph - N/A   Clear
6:15 PM 56.1 °F 54.9 °F 96% 29.92 in 10.0 mi Calm Calm - N/A   Clear
6:35 PM 55.4 °F 54.5 °F 97% 29.93 in 10.0 mi SE 3.5 mph - N/A   Clear
6:55 PM 54.7 °F 54.3 °F 99% 29.94 in 10.0 mi SSE 3.5 mph - N/A   Clear
7:15 PM 53.4 °F 53.2 °F 99% 29.94 in 10.0 mi Calm Calm - N/A   Scattered Clouds
7:55 PM 50.0 °F 50.0 °F 100% 29.95 in 10.0 mi Calm Calm - N/A   Clear
8:15 PM 49.5 °F 49.5 °F 100% 29.96 in 7.0 mi Calm Calm - N/A   Mostly Cloudy
8:35 PM 53.6 °F 53.6 °F 100% 29.95 in 10.0 mi Calm Calm - N/A   Overcast
8:55 PM 53.6 °F 53.6 °F 100% 29.96 in 10.0 mi Calm Calm - N/A   Mostly Cloudy
9:15 PM 52.0 °F 52.0 °F 100% 29.96 in 10.0 mi South 3.5 mph - N/A   Scattered Clouds
9:35 PM 49.8 °F 49.8 °F 100% 29.96 in 7.0 mi Calm Calm - N/A   Scattered Clouds
9:55 PM 48.6 °F 48.6 °F 100% 29.97 in 4.0 mi Calm Calm - N/A   Clear
10:15 PM 50.4 °F 50.4 °F 100% 29.99 in 2.0 mi North 6.9 mph - N/A   Clear
10:35 PM 50.2 °F 50.2 °F 100% 29.99 in 7.0 mi Calm Calm - N/A   Clear
10:55 PM 49.1 °F 49.1 °F 100% 29.99 in 2.0 mi SE 3.5 mph - N/A   Scattered Clouds
11:15 PM 49.8 °F 49.8 °F 100% 29.99 in 5.0 mi Calm Calm - N/A   Mostly Cloudy
11:35 PM 49.6 °F 49.6 °F 100% 30.00 in 7.0 mi Calm Calm - N/A   Overcast